#timestamp,LO_Frequency,Hit,StdDev 
1555228815.1,286047000.9,N
1555228835.9,286047002.5,N
1555228855.7,286046999.8,N
1555228875.6,286047002.0,N
1555228895.4,286047002.7,N
1555228915.2,286046999.8,N
1555228935.1,286046999.7,N
1555228936.0,286046999.7,N
1555228955.8,286047000.9,N
1555228975.6,286046998.6,N
1555228995.5,286046999.1,N
1555229015.3,286046999.9,N
1555229035.2,286047000.0,N
1555229055.9,286047002.8,N
1555229075.7,286047000.0,N
1555229095.6,286047002.7,N
1555229115.4,286047002.3,N
1555229135.2,286047000.1,N
1555229155.1,286046998.5,N
1555229156.0,286046998.5,N
1555229175.8,286047000.9,N
1555229195.6,286047002.1,N
1555229215.5,286047000.2,N
1555229235.3,286047002.7,N
1555229255.2,286047000.1,N
1555229275.9,286047002.8,N
1555229295.7,286047002.0,N
1555229315.6,286047002.0,N
1555229335.4,286047001.6,N
1555229355.2,286047002.4,N
1555229375.1,286047001.6,N
1555229376.0,286047001.6,N
1555229395.8,286047002.6,N
1555229415.7,286047001.4,N
1555229435.5,286047000.3,N
1555229455.3,286047002.5,N
1555229475.2,286047001.4,N
1555229495.0,286047001.3,N
1555229495.9,286047001.3,N
1555229515.7,286047001.4,N
1555229535.6,286047002.0,N
1555229555.4,286047002.0,N
1555229575.3,286047001.4,N
1555229595.1,286047003.7,Y
1555229615.8,286047003.6,P
1555229635.7,286047004.2,P
1555229655.5,286047003.5,N
1555229675.4,286047004.2,Y
1555229695.2,286046998.5,P
1555229715.0,286046998.2,N
1555229715.9,286046998.2,N
1555229735.8,286046998.3,N
1555229755.6,286047000.9,N
1555229775.4,286046998.7,N
1555229795.3,286046998.8,N
1555229815.1,286046999.4,N
1555229835.8,286046996.7,N
1555229855.7,286046996.6,N
1555229875.9,286046999.5,N
1555229895.7,286046996.5,N
1555229915.5,286046997.0,N
1555229935.4,286046999.2,N
1555229955.2,286046998.7,N
1555229975.0,286046999.1,N
1555229976.0,286046999.1,N
1555229995.8,286046999.6,N
1555230015.6,286046997.9,N
1555230035.5,286046995.4,Y
1555230055.3,286046996.7,P
1555230075.1,286046996.7,P
1555230095.9,286046997.7,N
1555230115.7,286046997.1,Y
1555230135.6,286046999.0,P
1555230155.4,286046998.2,N
1555230175.2,286046999.4,N
1555230195.1,286046999.4,N
1555230196.0,286046999.4,N
1555230215.8,286046999.0,N
1555230235.6,286046998.7,N
1555230255.5,286046998.4,N
1555230275.3,286046998.8,N
1555230295.2,286046998.7,N
1555230315.9,286046998.3,Y
1555230335.7,286046998.1,P
1555230355.6,286047000.7,N
1555230375.4,286047000.5,N
1555230395.2,286047000.8,N
1555230415.1,286046998.3,N
1555230416.0,286046998.3,N
1555230435.8,286047001.0,N
1555230455.7,286047000.7,N
1555230475.5,286047001.2,N
1555230495.3,286047001.2,N
1555230515.2,286047000.5,N
1555230535.0,286047001.1,N
1555230535.9,286047001.1,N
1555230555.7,286046998.6,N
1555230575.6,286046996.5,N
1555230595.4,286046996.5,N
1555230615.3,286046999.0,N
1555230635.1,286046998.2,N
1555230636.0,286046998.2,N
1555230655.8,286046999.4,N
1555230675.7,286046999.0,N
1555230695.5,286046998.4,N
1555230715.3,286046999.5,N
1555230735.2,286046999.2,N
1555230755.0,286046998.9,N
1555230755.9,286046998.9,N
1555230775.8,286046998.5,N
1555230795.6,286046998.4,N
1555230815.4,286046999.1,N
1555230835.3,286046996.6,N
1555230855.1,286046997.2,N
1555230875.9,286046996.7,N
1555230895.7,286046996.8,N
1555230915.5,286046996.8,N
1555230935.4,286046998.0,N
1555230955.2,286046997.8,N
1555230975.0,286046995.3,Y
1555230975.9,286046995.3,P
1555230995.8,286046999.1,N
1555231015.6,286046998.9,N
1555231035.5,286046998.6,N
1555231055.3,286046999.0,N
1555231075.1,286046997.0,N
1555231095.9,286046996.6,N
1555231115.7,286046997.4,N
1555231135.5,286046997.4,N
1555231155.4,286046997.6,N
1555231175.2,286046995.1,Y
1555231195.1,286046998.5,P
1555231196.0,286046998.5,P
1555231215.8,286046998.7,P
1555231235.6,286047001.1,Y
1555231255.5,286047002.1,P
1555231275.3,286047000.6,N
1555231295.2,286047000.2,N
1555231315.9,286046999.7,N
1555231335.7,286047000.3,N
1555231355.6,286047001.8,N
1555231375.4,286047001.9,N
1555231395.2,286046999.7,N
1555231415.1,286047000.1,N
1555231416.0,286047000.1,N
1555231435.8,286047001.0,N
1555231455.7,286047000.8,N
1555231475.5,286047000.5,N
1555231495.3,286046998.5,N
1555231515.2,286047000.6,N
1555231535.0,286047000.9,N
1555231535.9,286047000.9,N
1555231555.8,286046998.7,N
1555231575.6,286046998.7,N
1555231595.4,286047000.7,N
1555231615.3,286047001.1,N
1555231635.1,286047000.9,N
1555231655.9,286046998.6,N
1555231675.7,286046999.0,N
1555231695.5,286046996.5,Y
1555231715.4,286046999.6,P
1555231735.2,286046996.9,P
1555231755.1,286046996.6,N
1555231756.0,286046996.6,N
1555231775.8,286046998.8,N
1555231795.6,286046996.6,N
1555231815.5,286046999.3,N
1555231835.3,286046998.6,N
1555231855.2,286047000.6,N
1555231875.9,286047000.8,N
1555231895.7,286047000.3,N
1555231915.6,286046998.1,N
1555231965.4,286046999.3,E
1555231975.4,286046999.0,N
1555231995.2,286046999.2,P
1555232015.0,286046997.2,P
1555232015.9,286046997.2,Y
1555232035.8,286046999.0,P
1555232055.6,286046997.1,P
1555232075.5,286046996.8,P
1555232095.3,286046999.5,N
1555232115.1,286046998.3,N
1555232135.9,286046998.5,N
1555232155.7,286046999.3,N
1555232175.5,286046998.4,N
1555232195.4,286046998.3,N
1555232215.2,286046999.2,N
1555232235.0,286046999.4,N
1555232235.9,286046999.4,N
1555232255.8,286046999.4,N
1555232275.6,286046998.2,N
1555232295.5,286047000.6,N
1555232315.3,286047000.0,N
1555232335.1,286047000.2,N
1555232355.9,286046999.7,N
1555232375.7,286047001.5,N
1555232395.5,286047001.8,N
